Location: Litvinovka
(48.6667°N, 34.3500°E)
Time: 01:17:52
(UTC+00:00)

Cosmos 1092 Rocket - Pass Details

Date: 18 September 2020
Orbit: 954 x 995 km, 82.9° (Epoch: 23 October)

Event Time Altitude Azimuth Distance (km) Brightness Sun altitude
Rises 18:03:55 0° 350° (N) 3,645 7.6 -22.1°
Reaches altitude 10° 18:06:25 10° 350° (N) 2,697 6.8 -22.5°
Maximum altitude 18:12:35 85° 264° (W) 970 3.9 -23.4°
Enters shadow 18:15:36 33° 177° (S) 1,567 4.8 -23.8°
